Location: Albuquerque Trailhead
(34.7934°N, 106.3736°W)
Time: 23:26:09
(UTC+00:00)

Cosmos 1626 - Pass Details

Date: 20 June 2021
Orbit: 489 x 493 km, 82.5° (Epoch: 01 August)

Event Time Altitude Azimuth Distance (km) Brightness Sun altitude
Exits shadow 04:10:34 50° 150° (SSE) 635 2.2 -18.3°
Maximum altitude 04:11:19 65° 95° (E) 545 2.0 -18.4°
Drops below altitude 10° 04:14:59 10° 13° (NNE) 1,690 5.3 -18.9°
Sets 04:17:06 0° 11° (N) 2,577 6.3 -19.2°
